Location: Forli
(44.2227°N, 12.0407°E)
Time: 18:06:05
(UTC+01:00)

ISS - Pass Details

Date: 18 February 2026
Orbit: 416 x 427 km, 51.6° (Epoch: 6 March)

Event Time Altitude Azimuth Distance (km) Brightness Sun altitude
Exits shadow 04:54:29 35° 60° (ENE) 688 -2.2 -24.4°
Drops below altitude 10° 04:56:34 10° 59° (ENE) 1,495 -0.1 -24.0°
Sets 04:58:40 0° 59° (ENE) 2,360 1.2 -23.7°
